sat.trackr.live / text

‹ back to catalog

STARLINK-36698

NORAD 67709 · 2026-025S

PAYLOAD ACTIVE UNKNOWN

§ Identity

Operator
Country
US
Launch date
2026-02-07
Launch site
AFWTR
Launch vehicle
Mass (kg)
RCS (m²)

Purposes: comms

External: N2YO · Heavens-Above · Gunter

§ Orbital elements

Epoch: 2026-05-24T21:20:58.695072Z

Period
93.91 min
Inclination
97.2841°
Eccentricity
0.0001054
Mean motion
15.33443290 rev/d
Perigee alt
464.8 km
Apogee alt
466.3 km
Semi-major
6,843.7 km
B*
7.4598e-4
RAAN
256.5585°
Arg perigee
75.1351°
Mean anomaly
285.0008°
Rev number
1,769

§ Raw data

STARLINK-366981 67709U 26025S   26144.88956823  .00024084  00000+0  74598-3 0  99932 67709  97.2841 256.5585 0001054  75.1351 285.0008 15.33443290 17690

JSON: /api/v1/satellites/67709 · /tle

For live sub-satellite position, see the globe view (requires WebGL).

§ Visibility from observer

Set your observer location to see the next 7 days of passes ≥ 10°. The values pass through the URL so the page stays shareable.

No JS? Fill the form by hand. The geolocation button needs JavaScript.